Tracking 29799 objects as of 11-Oct-2024
HD Live streaming from Space Station
objects crossing your sky now

SSC

Track SSC now!
10-day predictions
SSC is classified as:


NORAD ID: 13874
Int'l Code: 1983-008H
Perigee: 418.2 km
Apogee: 1,566.6 km
Inclination: 63.3 °
Period: 104.8 minutes
Semi major axis: 7363 km
RCS: Unknown
Launch date: February 9, 1983
Source: United States (US)
Launch site: AIR FORCE WESTERN TEST RANGE (AFWTR)
Your satellite tracking list
Your tracking list is empty




NASA's NSSDC Master Catalog

Two Line Element Set (TLE):
1 13874U 83008H   24285.19064517  .00034376  00000-0  33746-2 0  9994
2 13874  63.2990 254.6826 0779794 125.2437 242.4153 13.73989641267023
Source of the keplerian elements: McCants